GEFSSE_con_cape1000_222.txt.gz
Probability
52 48 65 65 68 65 65 61 58 58 55 58 58 52 48 42 42 42 39 32 32 29 29 19 19 23 19 10 16 13 10 13 6 6 3 6 6 6 0 6 6 0 3
52 52 65 68 68 65 65 65 61 55 48 58 55 45 42 42 39 39 35 32 26 23 19 19 19 13 13 13 10 6 10 6 3 3 3 3 3 3 0 6 6 0 3
52 52 61 68 68 68 65 61 58 52 48 48 48 48 42 39 35 32 29 29 26 23 16 16 13 13 13 13 6 10 6 6 6 0 3 0 0 3 0 3 3 3 3
48 52 58 68 68 65 61 61 55 52 45 48 48 48 35 29 29 32 32 26 23 23 13 13 10 10 10 10 13 13 10 10 10 3 0 0 0 6 6 3 0 0 0
52 52 65 68 65 65 61 58 58 45 45 45 39 39 32 32 29 26 23 19 16 13 13 13 13 6 10 13 13 13 13 10 6 0 0 0 0 3 10 6 6 3 0
52 52 61 65 65 65 58 52 55 39 35 35 35 35 32 29 29 23 23 16 13 13 13 13 10 6 6 6 10 10 6 10 3 0 0 0 0 6 6 3 10 6 6
42 52 52 61 58 55 55 52 42 39 35 35 35 35 35 32 23 19 19 16 13 13 13 13 6 6 6 10 10 10 6 6 3 0 0 0 0 6 6 3 3 3 3
39 52 48 55 52 52 48 48 35 35 32 32 32 32 32 29 19 16 16 13 10 13 13 13 3 3 3 6 6 6 3 3 3 0 0 0 3 6 6 3 3 3 3
39 45 48 45 45 48 48 39 35 32 32 32 32 32 26 16 16 10 10 6 10 6 6 6 10 6 3 3 6 3 3 0 0 0 0 0 3 6 6 6 3 0 0
35 32 35 29 32 32 32 32 29 29 29 29 26 23 13 13 16 13 6 10 10 6 6 6 6 6 3 0 3 3 0 0 0 0 0 0 3 3 3 3 0 0 0
35 29 29 29 26 19 26 26 23 23 26 23 13 13 6 6 6 6 3 6 10 6 3 3 3 6 0 0 0 0 0 0 0 0 0 0 0 3 3 3 3 0 0
29 29 26 26 19 23 26 19 19 19 16 16 13 10 6 6 6 3 3 3 3 3 3 3 3 0 0 0 0 0 0 0 0 0 0 0 0 0 3 3 3 3 0
29 29 26 23 19 19 23 19 19 16 16 13 10 10 6 6 6 3 0 3 3 3 0 0 0 0 0 0 0 0 0 0 0 0 0 0 0 0 0 0 3 3 3
26 26 26 23 23 16 19 13 19 16 16 10 10 10 10 6 6 6 0 3 3 0 0 0 0 0 0 0 0 0 0 0 0 0 0 0 0 0 0 0 0 3 3
23 23 23 23 19 19 16 16 13 13 13 6 6 10 6 6 6 3 3 3 0 0 0 0 0 0 0 0 0 0 0 0 0 0 0 0 0 0 0 0 0 0 0
16 19 19 19 16 16 19 16 13 13 10 10 6 6 6 6 6 6 3 3 0 0 0 0 0 0 0 0 0 0 0 0 0 0 0 0 0 0 0 0 0 0 0
10 13 10 13 16 13 16 13 6 6 10 10 6 6 6 6 6 3 3 0 0 0 0 0 0 0 0 0 0 0 0 0 0 0 0 0 0 0 0 0 0 0 0
3 10 6 6 10 10 10 13 13 10 6 6 3 3 3 3 3 3 3 0 0 0 0 0 0 0 0 0 0 0 0 0 0 0 0 0 0 0 0 0 0 0 0
3 6 6 6 6 10 10 13 10 6 6 6 3 3 3 3 3 3 3 0 0 0 0 0 0 0 0 0 0 0 0 0 0 0 0 0 0 0 0 0 0 0 0
6 6 6 6 3 6 10 10 6 6 6 6 6 6 6 3 3 3 0 0 0 0 0 0 0 0 0 0 0 0 0 0 0 0 0 0 0 0 0 0 0 0 0
3 6 6 3 0 3 3 3 3 3 6 3 3 6 3 3 0 0 0 0 0 0 0 0 0 0 0 0 0 0 0 0 0 0 0 0 0 0 0 0 0 0 0
3 6 6 6 0 3 3 3 3 0 0 0 0 0 0 0 0 0 0 0 0 0 0 0 0 0 0 0 0 0 0 0 0 0 0 0 0 0 0 0 0 0 0
3 3 6 3 0 0 3 3 0 0 0 0 0 0 0 0 0 0 0 0 0 0 0 0 0 0 0 0 0 0 0 0 0 0 0 0 0 0 0 0 0 0 0
0 3 3 0 0 0 3 0 0 0 0 0 0 0 0 0 0 0 0 0 0 0 0 0 0 0 0 0 0 0 0 0 0 0 0 0 0 0 0 0 0 0 0
0 3 0 0 0 0 3 0 0 0 0 0 0 0 0 0 0 0 0 0 0 0 0 0 0 0 0 0 0 0 0 0 0 0 0 0 0 0 0 0 0 0 0
0 0 0 0 0 0 3 0 0 0 0 0 0 0 0 0 0 0 0 0 0 0 0 0 0 0 0 0 0 0 0 0 0 0 0 0 0 0 0 0 0 0 0

GEFSSE_con_cape1000_228.txt.gz
Probability
32 48 65 65 61 61 58 58 55 55 55 55 48 48 48 45 39 39 35 32 32 29 23 23 16 16 16 19 10 13 10 10 6 6 3 6 3 6 6 3 0 0 6
39 52 65 68 61 65 61 58 55 55 58 55 52 48 45 42 39 32 29 29 29 23 23 19 16 16 16 13 10 6 6 6 3 6 3 3 6 3 0 3 3 0 0
48 52 65 68 68 65 61 58 58 58 58 55 48 45 45 39 32 29 26 26 26 23 19 16 19 16 16 13 13 10 3 3 3 3 3 0 0 0 0 6 0 0 0
52 52 61 68 68 65 58 58 52 55 55 52 48 45 35 35 29 29 26 23 19 19 19 13 16 13 13 16 16 10 6 6 0 0 0 0 0 3 3 6 0 0 0
48 48 61 65 65 65 65 58 55 55 52 52 35 35 35 32 32 29 26 26 19 13 10 10 10 13 13 16 13 10 6 10 0 0 0 0 0 3 0 3 3 0 0
39 45 55 61 61 61 65 55 55 52 48 39 35 35 35 32 32 23 23 19 13 13 10 10 10 10 10 10 10 6 6 3 0 0 0 0 0 3 6 3 3 3 0
39 42 52 61 61 61 58 58 52 45 39 39 39 32 29 26 26 26 19 16 13 13 13 6 6 6 6 10 10 6 6 0 0 0 0 0 0 3 6 3 3 3 3
42 42 48 55 58 52 55 48 42 39 35 35 35 32 29 29 26 19 16 19 16 16 13 10 6 6 6 6 10 3 3 0 0 0 0 0 0 3 3 3 3 3 3
39 45 45 42 45 48 39 35 35 35 35 35 35 35 29 29 26 19 16 16 16 13 13 10 6 3 3 3 3 3 3 0 0 0 0 0 0 3 3 3 0 0 0
32 35 35 29 26 26 29 29 26 29 35 32 29 26 23 23 23 19 10 10 10 10 3 3 0 0 0 0 0 0 0 0 0 0 0 0 0 3 3 3 3 0 0
32 35 26 23 16 13 13 16 16 19 29 23 23 13 13 10 6 3 3 3 3 3 3 3 0 0 0 0 0 0 0 0 0 0 0 0 0 0 0 0 3 3 3
29 26 26 19 16 13 13 13 10 16 16 13 13 10 10 10 6 3 3 3 3 3 3 3 0 0 0 0 0 0 0 0 0 0 0 0 0 0 0 0 3 0 0
19 23 16 19 16 13 10 10 10 10 10 13 10 10 10 6 6 3 3 3 3 3 0 0 0 0 0 0 0 0 0 0 0 0 0 0 0 0 0 0 0 0 0
16 19 19 16 13 10 10 10 10 10 10 10 10 10 10 6 3 3 3 3 3 0 0 0 0 0 0 0 0 0 0 0 0 0 0 0 0 0 0 0 0 0 0
10 10 19 13 6 10 10 10 10 10 10 6 6 10 6 6 3 3 3 3 0 0 0 0 0 0 0 0 0 0 0 0 0 0 0 0 0 0 0 0 0 0 0
3 0 3 10 6 6 10 10 10 10 10 6 6 6 6 6 3 3 3 0 0 0 0 0 0 0 0 0 0 0 0 0 0 0 0 0 0 0 0 0 0 0 0
3 3 3 3 3 6 10 10 10 10 10 6 6 6 6 6 3 3 0 0 0 0 0 0 0 0 0 0 0 0 0 0 0 0 0 0 0 0 0 0 0 0 0
0 0 3 3 3 3 3 10 10 10 6 6 6 6 6 6 3 3 0 0 0 0 0 0 0 0 0 0 0 0 0 0 0 0 0 0 0 0 0 0 0 0 0
0 0 0 0 0 3 3 3 3 10 6 6 3 3 6 6 0 0 0 0 0 0 0 0 0 0 0 0 0 0 0 0 0 0 0 0 0 0 0 0 0 0 0
0 0 0 0 0 3 3 3 3 0 3 3 3 3 3 3 3 0 0 0 0 0 0 0 0 0 0 0 0 0 0 0 0 0 0 0 0 0 0 0 0 0 0
0 0 0 0 0 0 0 0 0 0 0 0 0 3 3 3 3 0 0 0 0 0 0 0 0 0 0 0 0 0 0 0 0 0 0 0 0 0 0 0 0 0 0
0 0 0 0 0 0 0 0 0 0 0 3 0 3 3 3 3 0 0 0 0 0 0 0 0 0 0 0 0 0 0 0 0 0 0 0 0 0 0 0 0 0 0
0 0 0 0 0 0 0 0 0 0 0 0 0 0 0 0 0 0 0 0 0 0 0 0 0 0 0 0 0 0 0 0 0 0 0 0 0 0 0 0 0 0 0
0 0 0 0 0 0 0 0 0 0 0 0 0 0 0 0 0 0 0 0 0 0 0 0 0 0 0 0 0 0 0 0 0 0 0 0 0 0 0 0 0 0 0
0 0 0 0 0 0 0 0 0 0 0 0 0 0 0 0 0 0 0 0 0 0 0 0 0 0 0 0 0 0 0 0 0 0 0 0 0 0 0 0 0 0 0
0 0 0 0 0 0 0 0 0 0 0 0 0 0 0 0 0 0 0 0 0 0 0 0 0 0 0 0 0 0 0 0 0 0 0 0 0 0 0 0 0 0 0

GEFSSE_con_cape1000_234.txt.gz
Probability
23 35 48 55 55 55 55 58 58 58 52 52 52 48 48 48 42 39 39 32 32 29 26 29 26 26 19 16 13 10 6 10 6 6 6 6 3 3 6 3 0 0 0
19 45 52 52 58 58 58 58 55 48 52 52 55 52 45 45 39 42 35 35 32 26 26 23 19 23 16 13 6 3 3 3 3 6 6 3 3 6 3 6 0 0 0
32 42 48 55 58 61 58 55 58 48 48 55 55 48 48 42 39 32 26 26 32 26 26 19 19 13 13 10 6 3 3 3 0 0 0 0 0 6 3 3 0 0 0
42 45 45 55 61 61 55 55 55 55 55 55 52 48 39 35 32 29 26 23 19 23 23 23 19 13 13 10 10 3 0 3 3 0 0 0 0 0 0 0 0 0 0
42 45 45 58 58 52 55 52 52 55 55 52 45 42 35 35 32 29 23 19 16 16 19 23 19 16 16 16 13 6 0 0 0 0 0 0 0 0 0 0 0 0 0
42 42 48 58 55 48 52 52 52 52 55 45 42 42 35 32 26 26 26 23 16 13 13 13 13 13 13 13 6 6 6 0 0 0 0 0 0 0 0 0 0 3 3
42 39 45 55 52 55 45 48 48 48 42 42 42 39 32 29 26 26 19 16 13 10 10 10 10 10 10 10 6 3 6 0 0 0 0 0 0 0 0 0 0 0 0
42 35 39 52 52 48 42 42 45 39 39 39 42 32 32 23 23 19 16 16 13 16 13 10 13 10 10 10 6 6 0 0 0 0 0 0 0 0 0 0 0 0 0
32 29 35 42 45 42 39 39 35 35 32 35 42 29 29 29 26 19 16 13 16 16 13 13 10 10 10 10 6 3 0 0 0 0 0 0 0 0 0 0 0 0 0
29 26 29 23 23 26 29 32 26 26 29 29 29 29 29 29 29 16 16 16 16 16 10 10 13 6 10 3 0 0 0 0 0 0 0 0 0 0 0 3 0 0 0
26 26 23 19 16 16 16 16 16 19 23 23 19 13 13 13 16 13 10 13 13 6 6 3 10 0 0 0 0 0 0 0 0 0 0 0 0 0 0 0 0 0 0
26 26 16 16 16 13 13 16 16 16 16 13 13 3 3 3 3 3 6 3 6 6 6 3 0 0 0 0 0 0 0 0 0 0 0 0 0 0 0 0 0 0 0
16 19 16 13 10 10 10 10 10 6 10 10 10 3 0 3 3 3 3 3 3 0 0 0 0 0 0 0 0 0 0 0 0 0 0 0 0 0 0 0 0 0 0
23 13 10 6 6 10 10 10 6 10 6 10 6 3 0 0 3 3 3 0 0 0 0 0 0 0 0 0 0 0 0 0 0 0 0 0 0 0 0 0 0 0 0
16 13 10 6 6 6 10 6 6 6 10 6 3 3 0 0 0 0 0 0 0 0 0 0 0 0 0 0 0 0 0 0 0 0 0 0 0 0 0 0 0 0 0
16 13 10 6 6 6 6 6 6 6 6 10 3 3 3 0 0 0 0 0 0 0 0 0 0 0 0 0 0 0 0 0 0 0 0 0 0 0 0 0 0 0 0
10 6 3 10 6 6 3 3 6 6 6 6 6 3 3 0 0 0 0 0 0 0 0 0 0 0 0 0 0 0 0 0 0 0 0 0 0 0 0 0 0 0 0
6 3 3 6 3 3 0 0 0 3 6 6 6 6 3 3 0 0 0 0 0 0 0 0 0 0 0 0 0 0 0 0 0 0 0 0 0 0 0 0 0 0 0
3 3 0 0 3 0 0 0 0 0 0 0 3 3 3 3 0 0 0 0 0 0 0 0 0 0 0 0 0 0 0 0 0 0 0 0 0 0 0 0 0 0 0
0 0 0 0 0 0 0 0 0 0 0 0 0 0 3 3 0 0 0 0 0 0 0 0 0 0 0 0 0 0 0 0 0 0 0 0 0 0 0 0 0 0 0
0 0 0 0 0 0 0 0 0 0 0 0 0 0 0 0 0 0 0 0 0 0 0 0 0 0 0 0 0 0 0 0 0 0 0 0 0 0 0 0 0 0 0
0 0 0 0 0 0 0 0 0 0 0 0 0 0 0 0 0 0 0 0 0 0 0 0 0 0 0 0 0 0 0 0 0 0 0 0 0 0 0 0 0 0 0
0 0 0 0 0 0 0 0 0 0 0 0 0 0 0 0 0 0 0 0 0 0 0 0 0 0 0 0 0 0 0 0 0 0 0 0 0 0 0 0 0 0 0
0 0 0 0 0 0 0 0 0 0 0 0 0 0 0 0 0 0 0 0 0 0 0 0 0 0 0 0 0 0 0 0 0 0 0 0 0 0 0 0 0 0 0
0 0 0 0 0 0 0 0 0 0 0 0 0 0 0 0 0 0 0 0 0 0 0 0 0 0 0 0 0 0 0 0 0 0 0 0 0 0 0 0 0 0 0
0 0 0 0 0 0 0 0 0 0 0 0 0 0 0 0 0 0 0 0 0 0 0 0 0 0 0 0 0 0 0 0 0 0 0 0 0 0 0 0 0 0 0

GEFSSE_con_cape1000_240.txt.gz
Probability
35 42 42 52 52 58 58 55 58 55 52 52 52 52 52 48 42 39 39 35 29 32 29 32 26 29 23 23 13 6 6 10 10 6 13 10 10 6 3 3 0 0 0
26 35 42 52 55 55 55 55 55 52 52 55 52 52 48 45 39 35 29 32 32 26 26 26 26 23 23 13 10 10 10 6 6 6 13 10 10 6 0 0 3 0 0
23 39 42 55 55 58 55 52 52 52 48 52 55 48 48 45 32 32 29 29 32 26 23 19 23 26 6 3 6 6 6 6 3 3 3 0 3 3 0 0 0 0 0
23 35 39 45 48 55 55 52 52 55 45 45 48 48 52 39 26 29 26 26 19 23 26 29 19 13 6 3 3 3 0 0 0 0 0 0 0 0 0 0 0 0 0
26 32 35 48 48 48 45 45 52 48 52 45 48 42 35 35 29 29 26 19 19 19 23 23 19 13 6 6 3 0 0 0 0 0 0 0 0 0 0 0 0 0 0
26 32 35 48 45 45 48 45 48 42 45 48 39 32 35 32 32 32 26 23 19 19 23 19 16 13 13 6 3 0 0 0 0 0 0 0 0 0 0 0 0 0 0
26 32 35 45 42 42 42 39 39 45 45 39 35 32 32 29 32 32 29 23 23 19 16 16 16 16 10 10 6 3 0 0 0 0 0 0 0 0 0 0 0 0 0
26 29 35 39 39 39 32 29 35 42 39 35 35 35 32 29 29 29 26 19 19 19 19 19 13 10 6 6 6 3 0 0 0 0 0 0 0 0 0 0 0 0 0
26 29 29 26 29 32 29 29 29 29 39 32 29 29 29 32 29 23 23 19 19 19 16 19 19 10 6 6 6 3 0 0 0 0 0 0 0 0 0 0 0 0 0
23 26 29 26 23 29 23 23 19 19 23 26 26 23 19 19 23 19 19 16 16 19 16 19 19 16 10 6 3 0 0 0 0 0 0 0 0 0 0 0 0 0 0
26 29 29 26 23 19 19 16 16 13 13 16 19 16 16 16 16 16 13 6 13 16 13 19 13 10 6 3 0 0 0 0 0 0 0 0 0 0 0 0 0 0 0
23 29 26 26 23 19 13 19 19 16 16 16 16 19 19 19 19 10 3 3 3 3 6 10 10 6 0 0 0 0 0 0 0 0 0 0 0 0 0 0 0 0 0
26 26 23 19 23 19 16 19 16 16 16 16 16 16 19 19 13 6 6 3 3 3 6 6 6 0 0 0 0 0 0 0 0 0 0 0 0 0 0 0 0 0 0
23 26 19 13 19 16 16 13 16 16 16 16 19 13 13 13 10 6 6 10 6 3 6 6 3 3 0 0 0 0 0 0 0 0 0 0 0 0 0 0 0 0 0
23 16 13 10 13 16 13 13 13 13 13 16 16 10 13 13 10 6 10 13 10 3 10 3 3 3 0 0 0 0 0 0 0 0 0 0 0 0 0 0 0 0 0
13 13 10 10 13 10 10 10 10 6 13 10 10 10 10 6 10 10 13 13 10 6 6 0 0 0 0 0 0 0 0 0 0 0 0 0 0 0 0 0 0 0 0
13 10 10 10 10 10 6 6 6 10 10 13 10 10 10 6 6 10 10 13 13 10 0 0 0 0 0 0 0 0 0 0 0 0 0 0 0 0 0 0 0 0 0
16 10 3 3 6 10 10 10 6 6 6 6 6 10 10 6 6 6 6 10 10 3 3 0 0 0 0 0 0 0 0 0 0 0 0 0 0 0 0 0 0 0 0
16 6 6 3 10 10 10 3 3 3 3 3 3 6 6 6 6 6 6 3 3 3 3 0 0 0 0 0 0 0 0 0 0 0 0 0 0 0 0 0 0 0 0
13 10 6 6 6 3 3 3 3 3 3 3 3 3 3 3 3 6 3 0 0 0 3 3 0 0 0 0 0 0 0 0 0 0 0 0 0 0 0 0 0 0 0
13 6 10 6 3 3 3 3 3 3 0 3 0 0 0 0 0 0 0 0 0 0 0 3 3 0 0 0 0 0 0 0 0 0 0 0 0 0 0 0 0 0 0
10 10 13 13 3 3 3 3 3 3 0 0 0 0 0 0 0 0 0 0 0 0 0 0 0 0 0 0 0 0 0 0 0 0 0 0 0 0 0 0 0 0 0
6 10 6 0 6 3 3 3 0 0 0 0 0 0 0 0 0 0 0 0 0 0 0 0 0 0 0 0 0 0 0 0 0 0 0 0 0 0 0 0 0 0 0
10 6 3 3 3 3 3 3 0 0 0 0 0 0 0 0 0 0 3 3 3 3 0 0 0 0 0 0 0 0 0 0 0 0 0 0 0 0 0 0 0 0 0
3 3 0 0 0 0 3 0 0 0 0 0 0 0 0 0 0 3 3 3 3 3 3 3 0 0 0 0 0 0 0 0 0 0 0 0 0 0 0 0 0 0 0
3 3 0 0 0 0 0 0 0 0 0 0 0 0 0 0 0 3 3 3 3 3 3 3 0 0 0 0 0 0 0 0 0 0 0 0 0 0 0 0 0 0 0

GEFSSE_con_cape1000_246.txt.gz
Probability
23 23 48 52 52 52 52 55 61 55 55 48 48 45 48 45 45 45 45 42 39 39 39 35 32 29 19 13 10 10 10 13 16 13 13 13 6 3 0 0 0 0 0
19 23 45 52 52 52 52 55 52 48 48 45 45 45 48 42 45 42 35 35 39 39 32 29 32 26 19 10 10 6 6 10 10 13 16 10 6 0 0 0 0 0 0
16 26 35 45 48 55 52 45 45 45 45 42 45 42 52 42 29 29 32 32 32 29 29 29 32 26 16 10 6 10 6 6 10 10 3 0 0 0 0 0 0 0 0
19 26 29 42 42 42 48 42 42 45 42 42 39 35 39 32 29 29 26 23 26 29 29 32 29 26 10 6 10 10 6 3 3 3 0 0 0 0 0 0 0 0 0
23 23 32 42 42 42 42 35 35 35 39 45 39 35 32 26 23 29 29 26 26 26 26 23 23 19 10 6 10 3 3 3 3 3 0 0 0 0 0 0 0 0 0
23 23 32 42 42 42 42 35 35 32 32 29 32 29 32 26 26 29 29 29 29 26 26 23 26 16 10 6 3 3 3 3 3 0 0 0 0 0 0 0 0 0 0
26 16 26 42 42 32 26 29 35 35 32 23 19 26 32 29 29 32 32 29 29 29 26 23 19 19 6 6 3 0 0 0 0 0 0 0 0 3 3 0 0 0 0
23 19 23 39 32 29 26 29 32 35 23 19 16 26 23 23 26 29 32 32 26 26 23 19 19 16 10 3 3 3 0 0 0 0 0 0 0 3 0 0 3 3 0
23 19 16 23 23 29 23 23 26 19 19 19 19 19 19 19 19 26 32 26 19 23 19 19 19 16 10 3 3 3 0 0 0 0 0 0 3 0 0 0 3 0 0
23 16 16 19 19 13 13 13 16 16 19 19 19 13 13 19 19 23 23 19 19 19 19 16 16 13 10 10 6 3 0 0 0 0 0 0 3 3 0 3 0 0 0
19 19 16 16 13 10 10 10 10 13 16 16 13 13 10 10 16 19 13 16 16 16 16 16 16 13 6 6 6 0 0 0 0 0 0 0 0 0 0 0 0 0 0
19 13 13 13 16 10 10 10 10 10 10 10 13 10 6 6 3 6 3 10 13 13 13 16 13 6 3 0 0 0 0 0 0 0 0 0 0 0 0 0 0 0 0
19 16 13 13 13 10 10 10 10 6 6 10 10 13 3 3 3 3 0 0 0 3 3 3 3 0 0 0 0 0 0 0 0 0 0 0 3 0 0 0 0 0 0
16 16 13 16 16 10 10 10 13 6 6 6 10 10 3 3 3 0 0 0 0 0 0 3 0 0 0 0 0 0 0 0 0 0 0 0 0 0 0 0 0 0 0
10 10 13 13 16 13 10 13 6 10 6 6 6 3 6 0 0 0 0 0 0 0 0 0 0 0 0 0 0 0 0 0 0 0 0 0 0 0 0 0 0 0 0
10 10 10 10 10 13 10 10 10 10 10 6 6 6 3 0 3 0 0 0 0 0 0 0 0 0 0 0 0 0 0 0 0 0 0 0 0 0 0 0 0 0 0
3 3 10 10 3 6 6 6 6 10 6 6 6 6 3 3 0 0 0 0 0 0 0 0 0 0 0 0 0 0 0 0 0 0 0 0 0 0 0 0 0 0 0
3 3 3 6 3 3 3 3 6 6 10 3 3 3 3 3 3 0 0 0 0 0 0 0 0 0 0 0 0 0 0 0 0 0 0 0 0 0 0 0 0 0 0
3 3 3 3 3 3 3 3 6 3 3 0 0 0 3 0 3 0 0 0 0 0 0 0 0 0 0 0 0 0 0 0 0 0 0 0 0 0 0 0 0 0 0
3 3 0 0 3 3 0 0 0 0 0 0 0 0 0 0 0 0 0 0 0 0 0 0 0 0 0 0 0 0 0 0 0 0 0 0 0 0 0 0 0 0 0
3 0 0 0 0 0 0 0 0 0 0 0 3 3 3 0 0 0 0 0 0 0 0 0 0 0 0 0 0 0 0 0 0 0 0 0 0 0 0 0 0 0 0
3 0 0 3 0 0 0 0 0 0 0 0 0 0 0 0 0 0 0 0 0 0 0 0 0 0 0 0 0 0 0 0 0 0 0 0 0 0 0 0 0 0 0
3 3 3 3 0 0 0 0 0 0 0 0 0 0 0 0 0 0 0 0 0 0 0 0 0 0 0 0 0 0 0 0 0 0 0 0 0 0 0 0 0 0 0
3 3 3 0 0 0 0 0 0 0 0 0 0 0 0 0 0 0 0 0 0 0 0 0 0 0 0 0 0 0 0 0 0 0 0 0 0 0 0 0 0 0 0
3 3 3 3 0 0 0 0 0 0 0 0 0 0 0 0 0 0 0 0 0 0 0 0 0 0 0 0 0 0 0 0 0 0 0 0 0 0 0 0 0 0 0
0 0 3 3 0 0 0 0 0 0 0 0 0 0 0 0 0 0 0 0 0 0 0 0 0 0 0 0 0 0 0 0 0 0 0 0 0 0 0 0 0 0 0

GEFSSE_con_cape1000_252.txt.gz
Probability
13 19 48 45 45 45 42 42 45 52 52 45 45 39 39 42 45 42 39 35 42 39 35 35 32 32 26 23 16 13 13 10 16 10 16 13 13 3 0 0 0 0 0
13 29 45 42 45 45 45 42 39 39 42 39 35 39 32 35 42 32 32 35 35 35 35 32 32 29 19 19 13 13 10 10 10 10 10 6 3 0 0 0 0 0 0
13 26 39 42 42 45 48 42 35 29 32 29 29 29 32 35 32 32 29 35 35 35 32 29 32 26 16 13 16 13 10 10 6 6 6 0 0 0 0 0 0 0 0
23 26 32 42 42 45 42 42 29 26 26 26 26 29 26 29 29 29 29 29 32 32 32 29 29 26 16 13 13 13 6 6 6 6 0 0 0 0 0 0 0 0 0
19 29 39 42 42 39 39 32 29 29 29 23 26 29 26 23 29 29 32 29 23 23 26 26 29 26 19 16 13 10 10 6 6 0 0 0 0 0 0 0 0 0 0
16 19 35 39 35 35 35 32 29 26 26 19 19 19 23 26 26 29 29 26 26 23 23 23 23 26 16 13 6 6 6 6 3 0 0 0 0 0 0 0 0 0 0
16 16 32 39 35 35 32 26 29 26 26 16 13 13 19 16 19 23 23 26 26 26 23 23 23 19 13 16 6 6 3 3 0 0 0 0 0 3 3 0 0 0 0
13 19 29 35 35 39 35 26 29 29 23 16 13 16 13 13 13 13 19 23 26 23 23 23 23 26 10 6 6 3 3 3 0 0 0 0 0 3 3 3 0 0 0
13 19 19 26 29 32 29 29 26 19 19 13 13 13 13 13 13 13 13 19 19 19 16 23 23 26 10 10 6 3 3 0 0 0 0 0 0 3 3 3 3 3 3
13 10 16 19 19 23 16 16 13 13 13 13 13 6 10 10 13 13 13 16 16 16 19 23 23 16 10 6 6 6 0 0 0 0 0 0 0 6 3 3 3 3 3
10 10 13 13 13 10 13 10 10 10 10 10 3 3 3 6 6 6 13 13 13 16 16 16 10 10 6 6 6 6 0 0 0 0 0 0 3 3 6 6 3 3 0
10 10 13 10 10 6 10 10 10 10 10 3 3 3 3 6 6 6 6 10 13 13 13 10 10 3 3 0 3 0 0 0 0 0 0 0 3 3 3 6 0 0 0
6 6 10 6 0 3 3 6 6 6 3 3 3 3 3 3 3 6 0 3 6 3 3 6 3 0 0 0 0 0 0 0 0 0 0 0 0 0 3 0 0 0 0
6 6 3 0 0 0 0 6 3 3 3 3 3 3 3 3 3 0 0 3 3 3 3 3 0 0 0 0 0 0 0 0 0 0 0 0 0 0 0 0 0 0 0
6 3 3 0 0 0 0 0 3 3 3 3 3 3 3 3 3 0 0 0 0 0 0 0 0 0 0 0 0 0 0 0 0 0 0 0 0 0 0 0 0 0 0
3 3 0 0 0 0 0 0 0 0 3 3 3 3 3 3 0 0 0 0 0 0 0 0 0 0 0 0 0 0 0 0 0 0 0 0 0 0 0 0 0 0 0
3 3 0 0 0 0 0 0 0 0 0 0 3 3 3 0 0 0 0 0 0 0 0 0 0 0 0 0 0 0 0 0 0 0 0 0 0 0 0 0 0 0 0
3 3 3 0 0 0 0 0 0 0 0 0 0 0 3 0 0 0 0 0 0 0 0 0 0 0 0 0 0 0 0 0 0 0 0 0 0 0 0 0 0 0 0
3 3 3 0 0 0 0 0 0 0 0 0 0 0 3 0 0 0 0 0 0 0 0 0 0 0 0 0 0 0 0 0 0 0 0 0 0 0 0 0 0 0 0
3 3 3 0 0 0 0 0 0 0 0 0 0 0 0 0 0 0 0 0 0 0 0 0 0 0 0 0 0 0 0 0 0 0 0 0 0 0 0 0 0 0 0
3 3 3 0 0 0 0 0 0 0 0 0 0 0 0 0 0 0 0 0 0 0 0 0 0 0 0 0 0 0 0 0 0 0 0 0 0 0 0 0 0 0 0
3 3 0 0 0 0 0 0 0 0 0 0 0 0 0 0 0 0 0 0 0 0 0 0 0 0 0 0 0 0 0 0 0 0 0 0 0 0 0 0 0 0 0
3 3 0 0 0 0 0 0 0 0 0 0 0 0 0 0 0 0 0 0 0 0 0 0 0 0 0 0 0 0 0 0 0 0 0 0 0 0 0 0 0 0 0
0 0 0 0 0 0 0 0 0 0 0 0 0 0 0 0 0 0 0 0 0 0 0 0 0 0 0 0 0 0 0 0 0 0 0 0 0 0 0 0 0 0 0
0 0 0 0 0 0 0 0 0 0 0 0 0 0 0 0 0 0 0 0 0 0 0 0 0 0 0 0 0 0 0 0 0 0 0 0 0 0 0 0 0 0 0
0 0 0 0 0 0 0 0 0 0 0 0 0 0 0 0 0 0 0 0 0 0 0 0 0 0 0 0 0 0 0 0 0 0 0 0 0 0 0 0 0 0 0